Weather History for KLRF - September, 2013

Change the Weather History Date:

Tuesday, September 3, 2013

  Actual Average (KSRC) Record (KSRC)
Temperature  
Mean Temperature 80 °F -  
Max Temperature 91 °F 88 °F 101 °F (2012)
Min Temperature 68 °F 67 °F 54 °F (1974)
Cooling Degree Days 15    
Growing Degree Days 30 (Base 50)    
Moisture  
Dew Point 65 °F    
Average Humidity 61    
Maximum Humidity 80    
Minimum Humidity 43    
Precipitation  
Precipitation 0.00 in - - ()
Sea Level Pressure  
Sea Level Pressure 29.99 in    
Wind  
Wind Speed 5 mph (ENE)    
Max Wind Speed 10 mph    
Max Gust Speed -    
Visibility 10 miles    
Events      
Averages and records for this station are not official NWS values.
T = Trace of Precipitation, MM = Missing Value Source: NWS Daily Summary

Daily Weather History Graph

Daily Weather History Graph

Search for Another Location

Airport or City:

Trip Planner

Search our weather history database for the weather conditions in past years. The results will help you decide how hot, cold, wet, or windy it might be!

Date:

Astronomy

Sep. 03, 2013 Rise Set
Actual Time 6:43 AM CDT 7:32 PM CDT
Civil Twilight 6:17 AM CDT 7:57 PM CDT
Nautical Twilight 5:46 AM CDT 8:28 PM CDT
Astronomical Twilight 5:15 AM CDT 8:59 PM CDT
Moon 4:59 AM CDT (9/3) 6:18 PM CDT (9/3)
Length of Visible Light 13h 40m
Length of Day
12h 49m
Waning Crescent, 3% of the Moon is Illuminated
Sep 3
Waning Crescent
Sep 5
New
Sep 12
First Quarter
Sep 19
Full
Sep 26
Last Quarter

Hourly Weather History & Observations

Time (CDT) Temp. Heat Index Dew Point Humidity Pressure Visibility Wind Dir Wind Speed Gust Speed Precip Events Conditions
12:58 AM 78.1 °F - 67.6 °F 70% 29.94 in 10.0 mi NNE 4.6 mph - N/A   Overcast
1:58 AM 75.9 °F - 66.4 °F 72% 29.94 in 10.0 mi NNE 3.5 mph - N/A   Mostly Cloudy
2:58 AM 75.7 °F - 65.3 °F 70% 29.95 in 10.0 mi NE 4.6 mph - N/A   Mostly Cloudy
3:58 AM 73.2 °F - 64.0 °F 73% 29.96 in 10.0 mi NNE 4.6 mph - N/A   Clear
4:58 AM 71.8 °F - 64.2 °F 77% 29.96 in 10.0 mi NNE 5.8 mph - N/A   Scattered Clouds
5:58 AM 72.1 °F - 63.3 °F 74% 29.98 in 10.0 mi NNE 5.8 mph - N/A   Clear
6:58 AM 71.4 °F - 63.5 °F 76% 30.00 in 10.0 mi NE 2.3 mph - N/A   Partly Cloudy
7:58 AM 73.4 °F - 64.2 °F 73% 30.01 in 10.0 mi NE 4.6 mph - N/A   Partly Cloudy
8:58 AM 78.1 °F - 65.1 °F 64% 30.02 in 10.0 mi ENE 9.2 mph - N/A   Clear
9:58 AM 83.1 °F 85.4 °F 66.2 °F 57% 30.03 in 10.0 mi ENE 9.2 mph - N/A   Clear
10:58 AM 83.1 °F 85.7 °F 66.7 °F 58% 30.04 in 10.0 mi ENE 6.9 mph - N/A   Clear
11:58 AM 86.2 °F 88.4 °F 66.0 °F 51% 30.02 in 10.0 mi East 10.4 mph - N/A   Clear
12:58 PM 88.9 °F 90.7 °F 64.9 °F 45% 30.02 in 10.0 mi Variable 4.6 mph - N/A   Clear
1:58 PM 89.2 °F 91.3 °F 65.3 °F 45% 30.00 in 10.0 mi Variable 5.8 mph - N/A   Clear
2:58 PM 89.1 °F 90.3 °F 63.7 °F 43% 29.98 in 10.0 mi Calm Calm - N/A   Clear
3:58 PM 90.5 °F 92.5 °F 64.9 °F 43% 29.97 in 10.0 mi East 9.2 mph - N/A   Partly Cloudy
4:58 PM 90.5 °F 92.5 °F 65.3 °F 43% 29.95 in 10.0 mi ENE 8.1 mph - N/A   Clear
5:58 PM 89.4 °F 91.5 °F 65.3 °F 45% 29.95 in 10.0 mi ENE 8.1 mph - N/A   Clear
6:58 PM 86.0 °F 87.6 °F 64.8 °F 49% 29.96 in 10.0 mi ENE 8.1 mph - N/A   Clear
7:58 PM 80.6 °F 82.2 °F 63.9 °F 57% 29.98 in 10.0 mi East 8.1 mph - N/A   Clear
8:58 PM 77.7 °F - 62.4 °F 59% 30.01 in 10.0 mi East 3.5 mph - N/A   Clear
9:58 PM 73.2 °F - 63.3 °F 71% 30.03 in 10.0 mi East 2.3 mph - N/A   Clear
10:58 PM 70.2 °F - 63.0 °F 78% 30.04 in 10.0 mi ESE 1.2 mph - N/A   Clear
11:58 PM 68.4 °F - 62.1 °F 80% 30.04 in 10.0 mi Calm Calm - N/A   Clear